Weather History for Pierre, SD

Change the Weather History Date:

Monday, November 28, 2011

  Actual Average Record
Temperature  
Mean Temperature 38 °F 27 °F  
Max Temperature 53 °F 37 °F 66 °F (2002)
Min Temperature 22 °F 17 °F -7 °F (1985)
Degree Days  
Heating Degree Days 27 38  
Month to date heating degree days 849 862  
Since 1 July heating degree days 1400 1543  
Cooling Degree Days 0 0  
Month to date cooling degree days 0 0  
Year to date cooling degree days 820 868  
Moisture  
Dew Point 24 °F    
Average Humidity 61    
Maximum Humidity 84    
Minimum Humidity 38    
Precipitation  
Precipitation 0.00 in 0.02 in 0.44 in (1960)
Month to date precipitation 0.59 0.72  
Year to date precipitation 25.79 19.42  
Snow  
Snow 0.00 in 0.20 in 4.80 in (1960)
Month to date snowfall 9.5 4.9  
Since 1 July snowfall 9.5 5.9  
Snow Depth 0.00 in    
Sea Level Pressure  
Sea Level Pressure 30.17 in    
Wind  
Wind Speed 10 mph (NW)    
Max Wind Speed 21 mph    
Max Gust Speed 28 mph    
Visibility 10 miles    
Events      
T = Trace of Precipitation, MM = Missing Value Source: NWS Daily Summary

Daily Weather History Graph

Daily Weather History Graph

Search for Another Location

Airport:

Trip Planner

Search our weather history database for the weather conditions in past years. The results will help you decide how hot, cold, wet, or windy it might be!

Date:

Astronomy

Nov. 28, 2011 Rise Set
Actual Time 7:53 AM CST 5:04 PM CST
Civil Twilight 7:20 AM CST 5:36 PM CST
Nautical Twilight 6:44 AM CST 6:12 PM CST
Astronomical Twilight 6:10 AM CST 6:47 PM CST
Moon 11:02 AM CST (11/28) 8:55 PM CST (11/28)
Length of Visible Light 10h 16m
Length of Day
9h 11m
Waxing Crescent, 16% of the Moon is Illuminated
Nov 28
Waxing Crescent
Dec 2
First Quarter
Dec 10
Full
Dec 17
Last Quarter
Dec 24
New

Hourly Weather History & Observations

Time (CST) Temp. Windchill Dew Point Humidity Pressure Visibility Wind Dir Wind Speed Gust Speed Precip Events Conditions
12:53 AM 28.9 °F 20.4 °F 16.0 °F 58% 29.99 in 10.0 mi SE 9.2 mph - N/A   Clear
1:53 AM 28.9 °F 21.9 °F 16.0 °F 58% 29.98 in 10.0 mi SSE 6.9 mph - N/A   Clear
2:53 AM 26.1 °F - 17.1 °F 69% 29.97 in 10.0 mi Calm Calm - N/A   Clear
3:53 AM 28.9 °F 25.2 °F 18.0 °F 64% 29.95 in 10.0 mi SSE 3.5 mph - N/A   Clear
4:53 AM 28.0 °F 24.2 °F 19.0 °F 69% 29.97 in 10.0 mi South 3.5 mph - N/A   Clear
5:53 AM 23.0 °F - 18.0 °F 81% 29.99 in 10.0 mi Calm Calm - N/A   Clear
6:53 AM 28.0 °F 22.8 °F 19.0 °F 69% 29.99 in 10.0 mi SW 4.6 mph - N/A   Clear
7:53 AM 28.0 °F - 21.0 °F 75% 30.01 in 10.0 mi Calm Calm - N/A   Clear
8:53 AM 28.0 °F 21.7 °F 21.9 °F 78% 30.05 in 10.0 mi SSW 5.8 mph - N/A   Clear
9:53 AM 37.9 °F 30.0 °F 28.0 °F 68% 30.07 in 10.0 mi WNW 12.7 mph - N/A   Clear
10:53 AM 46.9 °F - 28.9 °F 50% 30.10 in 10.0 mi NW 16.1 mph - N/A   Clear
11:53 AM 53.1 °F - 28.9 °F 40% 30.12 in 10.0 mi NW 18.4 mph 25.3 mph N/A   Clear
12:53 PM 52.0 °F - 30.0 °F 43% 30.16 in 10.0 mi NNW 16.1 mph - N/A   Clear
1:53 PM 51.1 °F - 30.0 °F 44% 30.20 in 10.0 mi North 15.0 mph - N/A   Clear
2:53 PM 48.9 °F - 30.9 °F 50% 30.24 in 10.0 mi North 16.1 mph 23.0 mph N/A   Partly Cloudy
3:53 PM 46.9 °F - 28.9 °F 50% 30.27 in 10.0 mi NNW 15.0 mph - N/A   Partly Cloudy
4:53 PM 43.0 °F 35.7 °F 28.9 °F 58% 30.30 in 10.0 mi NNW 15.0 mph - N/A   Clear
5:53 PM 37.9 °F 29.6 °F 28.0 °F 68% 30.35 in 10.0 mi NNW 13.8 mph - N/A   Clear
6:53 PM 35.1 °F 25.9 °F 27.0 °F 72% 30.37 in 10.0 mi NNW 13.8 mph - N/A   Clear
7:53 PM 32.0 °F 23.6 °F 26.1 °F 79% 30.39 in 10.0 mi NW 10.4 mph - N/A   Clear
8:53 PM 36.0 °F 27.5 °F 27.0 °F 70% 30.39 in 10.0 mi NNW 12.7 mph - N/A   Clear
9:53 PM 30.0 °F 23.2 °F 24.1 °F 79% 30.40 in 10.0 mi NW 6.9 mph - N/A   Clear
10:53 PM 26.1 °F 18.4 °F 23.0 °F 88% 30.40 in 10.0 mi NW 6.9 mph - N/A   Clear
11:53 PM 27.0 °F 18.7 °F 24.1 °F 89% 30.41 in 10.0 mi NNW 8.1 mph - N/A   Clear